Location: Dortmund
(51.5019°N, 7.6520°E)
Time: 13:32:04
(UTC+01:00)

ISS - Pass Details

Date: 05 January 2018
Orbit: 402 x 407 km, 51.6° (Epoch: 22 January)

Event Time Altitude Azimuth Distance (km) Brightness Sun altitude
Exits shadow 06:03:26 54° 90° (E) 503 -3.1 -22.3°
Drops below altitude 10° 06:06:05 10° 82° (E) 1,472 0.0 -21.9°
Sets 06:08:10 0° 82° (E) 2,334 1.3 -21.5°
